Wetbulb
55.77 56.38 57.21 57.66 58.56 59.22 58.79 59.72 59.28 59.91 59.27 58.19 57.54 55.50 55.23 55.28 54.27 54.41 54.94 55.05 55.42 53.63 53.11 52.83 53.39 51.86 51.15 51.14 50.45 50.78 51.19 51.55
54.53 54.82 55.19 55.62 55.63 55.79 55.03 54.79 54.97 54.67 53.63 52.18 51.88 51.45 52.29 52.69 53.60 54.49 54.55 54.23 54.14 52.71 51.94 51.26 50.80 50.29 49.09 49.35 48.98 48.75 48.86 49.67
53.75 53.62 53.43 53.31 53.13 53.22 53.44 53.28 53.05 52.99 52.53 51.71 51.98 51.78 52.14 52.53 53.35 53.93 54.16 53.16 52.73 52.59 50.04 49.34 48.72 48.74 48.25 47.81 46.91 45.85 46.39 47.36
52.22 52.50 51.26 51.21 51.27 51.22 52.37 52.61 52.83 52.76 52.85 52.75 52.59 52.30 51.69 50.48 50.22 50.62 50.30 50.46 49.84 48.72 47.98 47.66 46.94 47.31 46.63 45.90 45.92 45.89 44.62 45.64
52.08 51.27 50.80 51.14 50.92 51.61 51.98 52.51 52.11 52.91 52.63 51.27 50.04 48.81 47.94 48.87 48.29 48.25 48.28 49.08 48.81 48.11 46.88 46.12 46.18 46.64 45.38 45.90 46.41 44.41 44.10 41.49
50.02 50.53 51.40 51.59 51.70 51.25 51.58 52.04 52.05 52.17 51.63 50.79 49.12 48.38 48.64 48.25 47.90 47.65 47.65 47.97 47.23 46.63 46.25 45.73 45.68 45.34 44.48 43.84 43.32 43.55 44.70 43.40
50.09 50.98 51.76 51.23 51.40 50.92 51.01 51.23 51.16 50.86 50.45 49.94 48.96 47.80 48.02 47.11 46.96 46.08 45.95 45.44 44.95 44.80 45.82 44.63 44.20 43.56 43.22 42.63 42.00 43.05 41.01 40.77
48.14 48.82 49.03 49.61 49.33 49.77 50.61 49.97 49.50 49.68 49.47 49.33 48.48 47.65 46.99 45.75 45.49 44.40 43.62 42.84 42.33 43.43 43.09 42.50 42.07 42.09 41.70 41.81 42.16 40.70 40.36 39.30
47.83 48.70 48.48 48.44 49.04 48.74 48.92 49.12 49.21 49.15 49.39 48.18 47.20 46.99 46.39 46.03 45.72 44.55 43.28 42.24 42.15 42.46 42.17 41.40 41.06 40.90 40.78 40.20 39.59 40.30 38.86 38.81
48.11 48.65 48.48 48.14 48.21 48.47 47.66 47.68 48.21 47.15 45.27 43.78 43.29 43.97 44.00 43.68 43.65 42.66 41.82 42.10 43.70 41.72 41.10 40.59 40.13 39.81 39.52 39.08 38.29 37.77 37.57 37.31
48.53 47.85 48.24 48.11 47.59 47.59 46.69 46.65 45.68 43.46 42.51 42.50 43.05 42.65 42.97 42.71 41.83 41.21 41.22 41.14 41.53 41.32 40.59 39.77 38.97 38.98 40.27 38.53 37.55 37.85 37.18 37.01
46.94 46.96 48.13 47.91 47.67 46.35 45.42 43.08 42.05 41.12 41.36 41.81 41.61 41.78 42.32 42.12 42.36 41.61 41.43 41.09 40.07 39.94 41.17 41.78 41.50 41.88 41.44 39.03 38.33 37.77 37.51 36.46
47.24 46.96 47.27 46.57 45.79 44.69 42.23 40.95 40.67 40.57 41.45 41.51 41.24 41.29 41.54 41.42 41.16 40.68 40.79 40.24 40.94 41.05 42.11 41.56 41.12 40.21 40.35 39.04 36.82 35.67 33.96 31.48
46.10 46.18 44.98 44.62 45.31 44.20 41.63 41.59 40.76 41.83 41.48 40.88 40.46 40.23 39.56 39.70 39.90 40.23 40.25 39.82 39.77 39.56 40.20 39.93 39.14 38.12 36.17 34.47 33.64 32.71 31.61 30.85
44.97 44.68 43.64 42.74 45.03 44.21 42.48 40.91 40.62 40.62 40.70 40.18 39.81 39.29 38.83 38.90 39.30 39.36 39.27 39.63 39.23 38.74 37.15 37.30 36.09 34.99 33.33 32.55 31.91 30.11 29.25 29.60
43.38 41.91 40.77 41.26 41.56 42.17 42.23 40.69 40.70 40.34 39.50 39.19 39.20 38.97 38.68 38.47 37.76 37.74 37.93 37.65 36.77 36.47 35.24 34.47 34.03 32.64 31.73 29.14 28.55 27.55 27.14 27.26
41.63 41.48 41.29 41.26 42.10 42.26 41.29 40.60 40.27 40.23 39.10 38.81 39.50 39.06 38.22 37.90 37.21 36.76 36.55 35.95 36.09 34.30 33.53 32.94 30.95 32.12 32.32 31.49 29.44 26.28 26.84 26.62
40.27 39.88 40.22 41.30 41.51 43.28 39.87 39.74 40.71 40.05 39.60 40.02 40.34 39.42 39.56 37.78 37.77 37.32 35.02 33.27 32.16 32.29 31.63 30.85 29.61 29.06 32.43 31.70 31.25 26.98 25.66 24.80
39.68 39.99 40.68 41.47 42.23 40.91 39.66 40.86 40.49 39.83 40.26 39.58 39.09 38.46 38.20 38.53 37.92 36.05 33.89 31.48 30.38 31.13 29.82 29.63 28.26 30.35 32.55 32.71 32.26 26.43 25.12 25.20
MSLP
1016.45 1016.50 1016.60 1016.75 1016.94 1017.26 1018.14 1018.44 1018.87 1019.18 1018.88 1018.73 1019.04 1019.39 1019.50 1019.46 1019.76 1019.67 1019.55 1019.71 1019.79 1020.07 1020.19 1020.29 1020.40 1020.54 1020.60 1020.46 1020.34 1020.17 1020.07 1019.77
1017.54 1017.59 1017.38 1017.53 1018.04 1018.38 1018.54 1018.83 1019.54 1019.47 1019.60 1019.77 1019.94 1020.07 1019.87 1019.88 1019.79 1019.65 1019.64 1019.89 1020.11 1020.15 1020.34 1020.42 1020.43 1020.69 1020.72 1020.61 1020.56 1020.52 1020.33 1019.94
1018.24 1018.46 1018.55 1018.75 1019.12 1019.32 1019.10 1019.15 1019.51 1019.79 1019.81 1020.01 1020.06 1020.21 1019.98 1020.14 1020.27 1020.30 1020.33 1020.41 1020.47 1020.54 1020.85 1020.88 1020.90 1021.09 1021.05 1021.05 1020.99 1020.91 1020.65 1020.47
1019.16 1019.52 1019.80 1019.59 1019.77 1019.79 1019.68 1019.86 1020.12 1020.28 1020.39 1020.36 1020.34 1020.29 1020.53 1020.82 1020.85 1021.07 1021.07 1021.07 1020.99 1021.01 1021.02 1021.14 1021.17 1021.16 1021.32 1021.23 1021.04 1021.07 1021.00 1020.86
1019.60 1020.13 1020.45 1020.42 1020.45 1020.24 1020.30 1020.40 1020.44 1020.51 1020.62 1020.91 1021.28 1021.54 1021.70 1021.67 1021.54 1021.42 1021.35 1021.11 1021.11 1021.18 1021.38 1021.44 1021.42 1021.37 1021.56 1021.48 1021.43 1021.47 1021.37 1021.52
1019.90 1020.25 1020.52 1020.64 1020.76 1020.86 1020.73 1020.83 1020.91 1020.92 1020.98 1021.10 1021.40 1021.76 1021.70 1021.64 1021.69 1021.76 1021.78 1021.53 1021.49 1021.54 1021.57 1021.68 1022.08 1022.17 1022.06 1021.93 1021.71 1021.65 1021.56 1021.62
1019.73 1020.15 1020.48 1020.76 1020.85 1020.87 1020.84 1020.98 1021.30 1021.46 1021.55 1021.73 1021.93 1022.19 1022.15 1022.13 1022.00 1022.09 1021.99 1021.92 1021.82 1022.01 1022.18 1022.43 1022.47 1022.36 1022.28 1022.07 1021.87 1021.77 1021.80 1021.68
1019.96 1020.27 1020.72 1020.98 1021.04 1021.15 1021.27 1021.39 1021.54 1021.51 1021.66 1021.90 1022.18 1022.29 1022.27 1022.30 1022.30 1022.39 1022.28 1022.13 1022.33 1022.57 1022.48 1022.56 1022.58 1022.56 1022.40 1022.21 1021.99 1021.73 1021.82 1021.63
1019.90 1020.09 1020.31 1020.58 1020.69 1020.81 1021.00 1021.24 1021.48 1021.70 1022.02 1022.15 1022.31 1022.41 1022.35 1022.30 1022.19 1022.02 1022.06 1022.19 1022.31 1022.26 1022.21 1022.47 1022.53 1022.55 1022.37 1022.32 1022.17 1021.88 1021.80 1021.61
1019.69 1019.89 1020.00 1020.25 1020.32 1020.65 1021.01 1021.31 1021.61 1021.78 1022.12 1022.18 1022.15 1022.33 1022.30 1022.28 1022.23 1022.33 1022.33 1022.34 1022.02 1022.30 1022.21 1022.34 1022.29 1022.25 1022.10 1021.99 1021.98 1021.76 1021.51 1021.46
1019.62 1019.93 1020.28 1020.51 1020.69 1020.97 1021.14 1021.27 1021.78 1022.23 1022.18 1022.20 1022.10 1022.26 1022.20 1022.37 1022.37 1022.44 1022.45 1022.38 1022.17 1022.04 1022.10 1022.10 1021.93 1021.97 1021.81 1021.74 1021.66 1021.36 1021.23 1021.08
1019.89 1020.25 1020.65 1020.77 1020.91 1021.19 1021.55 1021.89 1022.12 1022.24 1022.22 1022.18 1022.13 1022.16 1022.32 1022.39 1022.44 1022.59 1022.65 1022.53 1022.36 1022.11 1022.04 1021.96 1021.89 1021.72 1021.34 1021.35 1021.15 1020.87 1020.74 1020.60
1020.43 1020.72 1021.02 1021.48 1021.62 1021.83 1022.08 1022.06 1022.15 1022.20 1022.04 1022.05 1022.21 1022.27 1022.53 1022.54 1022.49 1022.53 1022.54 1022.68 1022.51 1022.14 1021.73 1021.85 1021.70 1021.48 1021.26 1021.11 1020.91 1020.84 1020.89 1020.89
1021.51 1021.81 1022.19 1022.38 1022.31 1022.35 1022.20 1022.11 1022.09 1021.94 1021.89 1021.94 1021.95 1022.07 1022.21 1022.26 1022.39 1022.36 1022.21 1022.43 1022.43 1022.14 1021.84 1021.76 1021.52 1021.31 1021.12 1021.13 1021.14 1021.20 1021.15 1020.97
1022.51 1022.56 1022.69 1022.72 1022.56 1022.44 1022.25 1022.06 1021.74 1021.60 1021.64 1021.57 1021.49 1021.61 1021.59 1021.59 1021.62 1021.80 1021.91 1021.82 1021.97 1021.94 1021.75 1021.62 1021.34 1021.16 1021.37 1021.44 1021.47 1021.46 1021.35 1021.16
1023.22 1023.30 1023.10 1022.97 1022.79 1022.35 1022.04 1021.87 1021.59 1021.38 1021.32 1021.23 1021.10 1020.87 1020.77 1020.90 1021.12 1021.04 1021.20 1021.20 1021.19 1021.39 1021.47 1021.44 1021.36 1021.45 1021.74 1021.74 1021.79 1021.78 1021.49 1021.16
1023.59 1023.42 1023.13 1022.93 1022.71 1022.30 1021.94 1021.53 1021.34 1021.05 1020.99 1020.90 1020.75 1020.66 1020.51 1020.70 1020.78 1020.74 1020.84 1020.79 1020.87 1020.79 1021.02 1021.36 1021.54 1021.64 1021.82 1021.79 1021.70 1021.57 1021.33 1021.06
1023.91 1023.63 1023.25 1022.82 1022.40 1021.89 1021.47 1021.04 1020.75 1020.70 1020.91 1020.93 1020.37 1020.43 1020.60 1020.54 1020.37 1020.79 1020.50 1020.67 1020.90 1020.80 1020.92 1021.31 1021.52 1021.67 1021.70 1021.58 1021.42 1021.27 1021.08 1020.78
1023.79 1023.40 1023.00 1022.48 1022.06 1022.08 1021.57 1021.28 1021.02 1020.73 1020.40 1020.24 1020.18 1020.54 1020.74 1020.61 1020.68 1019.95 1020.29 1020.52 1020.73 1020.80 1020.99 1021.30 1021.55 1021.55 1021.41 1021.21 1020.96 1020.79 1020.66 1020.42
Wind_Speed
15 13 13 14 14 15 10 10 8 3 3 5 5 4 4 3 4 4 4 3 3 4 3 4 4 4 4 4 4 4 3 5
13 12 13 14 13 12 9 13 7 6 4 4 2 2 2 2 2 4 3 5 6 5 3 4 5 4 4 5 4 5 6 5
12 12 11 10 7 7 8 10 9 7 4 2 3 2 2 3 4 5 7 7 7 7 6 5 6 5 7 5 5 4 2 4
11 10 8 9 9 8 8 8 8 7 7 5 5 4 4 5 5 4 4 7 6 7 7 6 6 5 4 4 4 6 3 3
10 8 8 8 7 8 7 5 6 5 6 5 4 2 2 2 2 3 5 7 7 7 7 6 5 4 6 5 5 3 4 3
9 8 8 6 6 4 4 7 5 3 3 4 2 2 1 2 3 6 6 6 7 6 8 10 8 5 4 5 4 5 4 2
8 7 7 6 4 4 4 6 7 8 8 8 7 6 5 4 3 3 3 3 4 7 8 5 4 4 5 3 4 4 2 1
7 9 7 5 6 6 5 7 6 6 8 8 6 5 5 4 4 2 3 2 3 4 4 5 4 4 5 5 3 4 4 3
6 7 7 7 7 6 5 4 4 6 6 6 6 6 3 3 2 0 1 2 3 4 5 4 3 4 5 5 3 2 3 3
8 8 7 7 5 4 5 6 6 7 7 5 6 6 6 4 6 6 4 4 2 2 3 2 2 3 4 5 3 4 4 4
5 4 5 5 5 4 6 7 7 6 6 5 4 4 6 6 5 5 4 3 2 2 3 2 3 5 6 5 5 6 5 5
5 6 6 5 5 6 7 7 7 6 5 4 6 6 4 4 4 4 5 5 5 2 3 4 5 5 6 6 6 7 6 5
7 7 7 8 7 7 5 5 6 4 3 4 5 4 4 4 5 4 5 5 6 6 4 5 7 6 7 7 6 5 5 4
12 12 8 6 6 3 4 4 3 3 3 3 5 1 2 1 0 1 2 4 6 6 6 6 7 6 5 5 5 5 5 4
8 8 7 7 8 5 5 2 2 2 2 4 6 6 5 4 4 4 4 4 5 5 5 5 6 6 6 6 7 6 6 6
8 6 5 6 6 7 7 4 4 3 5 6 7 7 7 6 5 3 4 4 3 3 4 5 6 6 5 5 5 5 5 6
6 6 6 6 6 7 5 6 6 5 6 7 7 6 5 2 3 4 4 4 2 2 3 4 5 4 5 5 3 3 5 5
6 7 7 8 8 10 9 7 7 5 7 7 7 4 2 4 4 5 4 3 2 2 3 5 4 3 2 4 6 3 4 5
7 7 9 11 11 9 7 8 9 7 7 7 6 2 4 4 8 5 2 2 1 3 5 4 3 3 8 11 8 4 5 6
Wind_Direction
51 60 62 61 65 69 68 71 71 41 40 44 28 30 14 37 109 104 101 114 125 72 23 357 1 355 342 350 346 329 310 297
57 48 56 60 51 70 67 67 53 47 38 66 31 44 358 50 95 128 62 59 47 36 12 5 347 353 324 337 336 347 334 325
60 47 44 50 63 74 68 61 50 40 27 22 60 357 345 46 25 39 41 32 21 22 25 13 12 2 357 357 348 315 288 346
79 63 50 50 46 53 67 72 65 51 45 28 12 17 26 15 10 35 21 41 38 42 38 32 14 19 357 333 324 0 325 356
101 90 74 65 49 47 44 90 110 86 74 61 57 74 18 325 353 5 27 29 34 35 32 21 12 6 13 13 36 36 46 25
114 119 117 111 101 83 18 23 60 82 100 114 97 54 339 343 8 21 23 23 30 29 19 25 38 40 32 45 21 27 34 33
139 139 139 151 158 122 76 47 38 51 47 32 40 40 17 31 2 30 20 17 25 32 59 55 43 35 24 30 42 62 43 56
133 131 142 128 73 71 61 61 41 47 53 68 59 38 30 22 16 37 17 338 62 63 74 49 32 15 7 1 359 17 357 357
131 128 120 114 112 101 88 78 50 60 75 53 35 26 19 6 24 268 350 41 115 91 72 64 42 359 341 323 317 334 348 326
140 141 143 143 131 104 102 88 85 70 67 49 45 25 24 345 354 41 60 35 86 131 137 181 195 263 280 289 277 268 256 260
125 112 100 82 86 103 94 86 74 68 58 44 45 8 359 44 68 58 50 3 342 336 274 223 304 307 281 267 261 262 254 244
86 75 83 89 58 55 75 68 66 45 31 18 14 355 25 45 42 30 18 356 328 325 1 326 297 279 279 277 274 265 260 283
83 71 61 51 34 58 77 65 65 39 9 10 358 351 63 55 40 48 21 341 323 320 326 301 300 285 281 281 288 347 62 31
36 41 35 22 16 57 45 42 63 7 6 356 316 4 104 59 61 2 298 299 299 299 301 291 287 294 302 350 57 29 20 11
32 18 19 16 357 346 325 359 10 334 329 285 276 188 188 200 212 242 260 267 274 287 289 307 325 330 50 34 25 13 359 348
13 2 1 342 324 316 317 330 320 269 273 280 265 215 191 190 220 229 255 260 268 329 346 344 344 68 45 38 25 359 332 325
358 354 341 321 305 301 285 291 292 277 270 268 268 237 203 226 200 246 262 267 290 32 2 12 54 83 88 61 40 327 313 318
345 323 309 297 289 284 269 273 272 271 292 301 300 209 146 222 231 272 283 298 19 10 30 92 65 126 100 343 309 284 291 296
312 298 290 280 287 304 314 340 325 308 285 296 2 350 7 325 272 251 74 66 303 282 104 80 45 346 330 324 314 275 294 289